EET,Max TemperatureF,Mean TemperatureF,Min TemperatureF,Max Dew PointF,MeanDew PointF,Min DewpointF,Max Humidity, Mean Humidity, Min Humidity, Max Sea Level PressureIn, Mean Sea Level PressureIn, Min Sea Level PressureIn, Max VisibilityMiles, Mean VisibilityMiles, Min VisibilityMiles, Max Wind SpeedMPH, Mean Wind SpeedMPH, Max Gust SpeedMPH,PrecipitationIn, CloudCover, Events, WindDirDegrees
2013-11-1,49,42,34,41,39,34,100,90,64,30.26,30.07,29.95,12,3,0,13,9,,0.00,7,Fog,187
2013-11-2,51,46,40,45,42,39,93,83,65,29.97,29.83,29.62,12,4,2,14,8,,0.01,8,Rain,181
2013-11-3,51,48,46,50,48,46,100,93,87,29.61,29.52,29.36,12,3,1,15,9,,0.08,8,Rain,187
2013-11-4,46,44,41,52,40,37,100,84,63,29.57,29.45,29.24,12,6,1,25,12,37,0.00,7,Rain,210
2013-11-5,49,44,40,48,43,39,94,87,73,29.47,29.38,29.33,12,6,2,17,11,,0.04,7,Rain,190
2013-11-6,42,41,40,43,40,39,100,95,87,29.54,29.40,29.33,12,3,1,8,3,,0.08,8,Rain,212
2013-11-7,43,39,35,41,39,36,100,97,85,29.73,29.62,29.50,12,2,0,12,5,,0.00,8,Fog-Rain,191
2013-11-8,45,42,38,45,42,38,100,96,86,29.99,29.84,29.68,12,2,0,9,6,,0.00,8,Fog-Rain,213
2013-11-9,50,43,36,50,43,34,100,98,93,30.00,29.82,29.71,7,2,0,14,5,,0.08,8,Fog-Rain,168
2013-11-10,42,38,33,46,40,34,100,97,87,29.92,29.78,29.74,11,2,0,10,4,,0.00,8,Fog,189
2013-11-11,41,38,34,41,38,34,100,100,93,30.39,30.18,29.89,7,1,0,10,4,,0.00,6,Fog,187
2013-11-12,41,38,35,41,39,37,100,97,88,30.45,30.36,30.24,11,3,0,9,5,,0.00,8,Fog,197
2013-11-13,39,37,35,39,36,33,100,94,83,30.25,30.12,30.04,12,3,1,13,10,,0.16,8,Rain-Snow,221
2013-11-14,39,38,37,39,38,37,100,94,91,30.29,30.15,30.06,12,3,1,9,7,,0.00,8,Rain,252
2013-11-15,38,36,35,39,35,33,100,93,80,30.40,30.31,30.24,7,2,0,10,6,,0.00,8,Fog,227
2013-11-16,44,38,32,45,38,32,100,97,82,30.23,30.04,29.95,9,2,1,14,10,,0.04,8,Rain-Snow,242
2013-11-17,46,40,35,45,41,36,100,91,79,30.25,30.01,29.92,12,5,1,17,12,30,0.00,7,Fog-Rain,278
2013-11-18,38,31,24,37,31,25,100,93,76,30.36,30.24,30.04,12,4,0,18,5,,0.00,8,Fog,155
2013-11-19,41,38,34,37,35,32,93,87,78,30.04,29.93,29.89,12,6,2,20,15,,0.00,7,,170
2013-11-20,48,42,36,45,41,36,93,86,77,29.91,29.75,29.65,12,5,2,17,12,,0.00,7,,154
2013-11-21,46,45,44,45,44,43,100,92,81,29.85,29.74,29.68,11,3,1,14,10,,0.03,8,Rain,140
2013-11-22,47,44,42,46,45,43,100,96,93,29.96,29.88,29.83,3,2,1,9,6,,0.08,8,Fog-Rain,116
2013-11-23,43,42,41,43,42,41,100,97,93,29.98,29.92,29.89,2,1,0,6,3,,0.02,7,Fog-Rain,166
2013-11-24,43,40,37,45,41,36,100,98,92,29.92,29.80,29.71,8,2,0,8,4,,0.01,8,Fog-Rain,198
2013-11-25,31,30,28,36,29,25,100,90,71,29.94,29.81,29.71,12,5,1,18,13,,0.00,7,Rain-Snow,357
2013-11-26,31,26,21,27,24,21,100,84,65,30.32,30.11,29.89,12,6,2,20,13,,0.00,6,Fog,341
2013-11-27,34,27,20,34,28,19,100,97,85,30.32,30.10,29.83,12,3,1,20,7,,0.12,7,Fog-Rain-Snow,216
2013-11-28,43,38,32,41,35,30,100,87,62,29.83,29.60,29.50,12,5,1,18,15,33,0.08,7,Rain-Snow,263
2013-11-29,36,34,32,32,30,25,93,81,59,29.83,29.71,29.56,12,6,2,17,11,28,0.00,8,Rain-Snow,291
2013-11-30,35,33,31,34,33,30,100,99,92,29.94,29.84,29.77,12,2,0,8,5,,0.02,8,Fog-Rain-Snow,185